Grafton, ND

7:11 AM CDT on April 21, 2018 (GMT -0500)
Grafton Municipal

Weather History for KGAF - November, 2012

Change the Weather History Date:

Friday, November 2, 2012

  Actual Average Record
Temperature  
Mean Temperature 29 °F -  
Max Temperature 32 °F 44 °F 73 °F (1978)
Min Temperature 26 °F 26 °F -3 °F (1951)
Degree Days  
Heating Degree Days 36    
Moisture  
Dew Point 26 °F    
Average Humidity 92    
Maximum Humidity 100    
Minimum Humidity 80    
Precipitation  
Precipitation 0.00 in - - ()
Sea Level Pressure  
Sea Level Pressure 30.18 in    
Wind  
Wind Speed 5 mph (ENE)    
Max Wind Speed 10 mph    
Max Gust Speed -    
Visibility 6 miles    
Events Rain , Snow    
Averages and records for this station are not official NWS values.
T = Trace of Precipitation, MM = Missing Value Source: NWS Daily Summary

Daily Weather History Graph

Daily Weather History Graph

Search for Another Location

Airport or City:

Astronomy

Nov. 02, 2012 Rise Set
Actual Time 8:17 AM CDT 6:07 PM CDT
Civil Twilight 7:44 AM CDT 6:40 PM CDT
Nautical Twilight 7:07 AM CDT 7:17 PM CDT
Astronomical Twilight 6:31 AM CDT 7:53 PM CDT
Moon 8:46 PM CDT (11/2) 11:49 AM CDT (11/2)
Length of Visible Light 10h 55m
Length of Day
9h 49m
Waning Gibbous, 87% of the Moon is Illuminated
Nov 2
Waning Gibbous
Nov 6
Last Quarter
Nov 13
New
Nov 20
First Quarter
Nov 28
Full

Hourly Weather History & Observations

Time (CDT) Temp. Windchill Dew Point Humidity Pressure Visibility Wind Dir Wind Speed Gust Speed Precip Events Conditions
12:15 AM 26.6 °F 19.1 °F 23.0 °F 86% 30.18 in 10.0 mi ENE 6.9 mph - N/A   Overcast
12:35 AM 26.6 °F 17.5 °F 23.0 °F 86% 30.17 in 10.0 mi ENE 9.2 mph - N/A   Overcast
12:55 AM 26.6 °F 19.1 °F 23.0 °F 86% 30.16 in 10.0 mi NE 6.9 mph - N/A   Overcast
1:15 AM 26.6 °F 18.2 °F 23.0 °F 86% 30.16 in 10.0 mi NE 8.1 mph - N/A   Overcast
1:35 AM 26.6 °F 20.0 °F 23.0 °F 86% 30.16 in 10.0 mi North 5.8 mph - N/A   Overcast
1:55 AM 26.6 °F 22.6 °F 23.0 °F 86% 30.16 in 10.0 mi NNE 3.5 mph - N/A   Overcast
2:15 AM 26.6 °F 19.1 °F 24.8 °F 93% 30.16 in 10.0 mi NE 6.9 mph - N/A   Overcast
2:35 AM 28.4 °F 19.1 °F 24.8 °F 86% 30.16 in 10.0 mi ENE 10.4 mph - N/A   Overcast
2:55 AM 26.6 °F 19.1 °F 23.0 °F 86% 30.17 in 10.0 mi ENE 6.9 mph - N/A   Overcast
3:15 AM 26.6 °F 17.5 °F 23.0 °F 86% 30.18 in 10.0 mi East 9.2 mph - N/A   Overcast
3:35 AM 26.6 °F 18.2 °F 23.0 °F 86% 30.17 in 10.0 mi ENE 8.1 mph - N/A   Overcast
3:55 AM 26.6 °F 20.0 °F 23.0 °F 86% 30.17 in 10.0 mi ENE 5.8 mph - N/A   Overcast
4:15 AM 26.6 °F 19.1 °F 23.0 °F 86% 30.17 in 10.0 mi NE 6.9 mph - N/A   Overcast
4:35 AM 26.6 °F 17.5 °F 23.0 °F 86% 30.17 in 10.0 mi East 9.2 mph - N/A   Overcast
4:55 AM 26.6 °F 20.0 °F 23.0 °F 86% 30.17 in 10.0 mi ENE 5.8 mph - N/A   Overcast
5:15 AM 26.6 °F 19.1 °F 23.0 °F 86% 30.17 in 10.0 mi East 6.9 mph - N/A   Overcast
5:35 AM 26.6 °F 21.2 °F 23.0 °F 86% 30.17 in 10.0 mi ENE 4.6 mph - N/A   Overcast
5:55 AM 26.6 °F 21.2 °F 23.0 °F 86% 30.17 in 10.0 mi East 4.6 mph - N/A   Overcast
6:15 AM 26.6 °F 20.0 °F 24.8 °F 93% 30.17 in 10.0 mi ENE 5.8 mph - N/A   Overcast
6:35 AM 26.6 °F 19.1 °F 24.8 °F 93% 30.17 in 10.0 mi East 6.9 mph - N/A   Overcast
6:55 AM 26.6 °F 19.1 °F 24.8 °F 93% 30.17 in 10.0 mi East 6.9 mph - N/A   Overcast
7:15 AM 28.4 °F 22.2 °F 24.8 °F 86% 30.17 in 10.0 mi East 5.8 mph - N/A   Overcast
7:35 AM 28.4 °F 23.3 °F 24.8 °F 86% 30.18 in 10.0 mi East 4.6 mph - N/A   Overcast
7:55 AM 28.4 °F 22.2 °F 24.8 °F 86% 30.18 in 10.0 mi East 5.8 mph - N/A   Overcast
8:15 AM 28.4 °F 23.3 °F 24.8 °F 86% 30.18 in 10.0 mi East 4.6 mph - N/A   Overcast
8:35 AM 28.4 °F 23.3 °F 24.8 °F 86% 30.18 in 10.0 mi ENE 4.6 mph - N/A   Overcast
9:15 AM 28.4 °F 22.2 °F 24.8 °F 86% 30.19 in 10.0 mi NE 5.8 mph - N/A   Overcast
9:35 AM 28.4 °F 23.3 °F 24.8 °F 86% 30.19 in 10.0 mi NE 4.6 mph - N/A   Overcast
9:55 AM 28.4 °F 24.6 °F 26.6 °F 93% 30.20 in 10.0 mi NE 3.5 mph - N/A   Overcast
10:15 AM 28.4 °F 24.6 °F 24.8 °F 86% 30.20 in 10.0 mi NNE 3.5 mph - N/A   Overcast
10:35 AM 28.4 °F 24.6 °F 26.6 °F 93% 30.20 in 10.0 mi NE 3.5 mph - N/A   Overcast
10:55 AM 28.4 °F 24.6 °F 26.6 °F 93% 30.20 in 10.0 mi ENE 3.5 mph - N/A   Overcast
11:15 AM 30.2 °F 26.7 °F 26.6 °F 86% 30.19 in 10.0 mi SE 3.5 mph - N/A   Overcast
11:35 AM 30.2 °F 26.7 °F 26.6 °F 86% 30.19 in 10.0 mi ESE 3.5 mph - N/A   Overcast
11:55 AM 30.2 °F 25.4 °F 26.6 °F 86% 30.19 in 10.0 mi SE 4.6 mph - N/A   Overcast
12:15 PM 32.0 °F 24.8 °F 26.6 °F 80% 30.19 in 10.0 mi ESE 8.1 mph - N/A   Overcast
12:35 PM 32.0 °F 26.4 °F 26.6 °F 80% 30.19 in 10.0 mi SE 5.8 mph - N/A   Overcast
12:55 PM 32.0 °F 26.4 °F 26.6 °F 80% 30.19 in 10.0 mi ESE 5.8 mph - N/A   Overcast
1:15 PM 32.0 °F 25.6 °F 26.6 °F 80% 30.19 in 10.0 mi SE 6.9 mph - N/A   Overcast
1:35 PM 32.0 °F 25.6 °F 26.6 °F 80% 30.18 in 10.0 mi SE 6.9 mph - N/A   Overcast
1:55 PM 32.0 °F 27.5 °F 26.6 °F 80% 30.18 in 5.0 mi SE 4.6 mph - N/A Snow Light Snow
2:15 PM 30.2 °F 25.4 °F 26.6 °F 86% 30.17 in 0.8 mi ESE 4.6 mph - N/A Snow Light Snow
2:35 PM 28.4 °F 24.6 °F 28.4 °F 100% 30.17 in 0.8 mi SE 3.5 mph - N/A Snow Light Snow
2:55 PM 28.4 °F 24.6 °F 28.4 °F 100% 30.17 in 0.5 mi SE 3.5 mph - N/A Snow Snow
3:15 PM 28.4 °F - 28.4 °F 100% 30.17 in 0.5 mi Calm Calm - N/A Snow Snow
3:35 PM 28.4 °F - 28.4 °F 100% 30.17 in 1.0 mi Calm Calm - N/A Snow Light Snow
3:55 PM 28.4 °F - 28.4 °F 100% 30.17 in 1.0 mi Calm Calm - N/A Snow Light Snow
4:15 PM 28.4 °F - 28.4 °F 100% 30.17 in 0.2 mi Calm Calm - N/A Snow Heavy Snow
4:35 PM 28.4 °F - 28.4 °F 100% 30.17 in 0.2 mi Calm Calm - N/A Snow Heavy Snow
4:55 PM 28.4 °F - 28.4 °F 100% 30.17 in 0.5 mi Calm Calm - N/A Snow Snow
5:15 PM 28.4 °F 24.6 °F 28.4 °F 100% 30.17 in 0.2 mi NE 3.5 mph - N/A Snow Heavy Snow
5:35 PM 28.4 °F - 28.4 °F 100% 30.17 in 0.2 mi Calm Calm - N/A Snow Heavy Snow
5:55 PM 28.4 °F - 28.4 °F 100% 30.17 in 0.2 mi Calm Calm - N/A Snow Heavy Snow
6:15 PM 28.4 °F - 28.4 °F 100% 30.17 in 0.5 mi Calm Calm - N/A Snow Snow
6:35 PM 28.4 °F 23.3 °F 28.4 °F 100% 30.17 in 0.5 mi NNE 4.6 mph - N/A Snow Snow
6:55 PM 28.4 °F - 28.4 °F 100% 30.18 in 0.8 mi Calm Calm - N/A Snow Light Snow
7:15 PM 28.4 °F 23.3 °F 28.4 °F 100% 30.18 in 1.2 mi NE 4.6 mph - N/A Snow Light Snow
7:35 PM 28.4 °F 24.6 °F 28.4 °F 100% 30.18 in 3.0 mi NE 3.5 mph - N/A Snow Light Snow
7:55 PM 28.4 °F - 28.4 °F 100% 30.18 in 2.0 mi Calm Calm - N/A Snow Light Snow
8:15 PM 28.4 °F 24.6 °F 28.4 °F 100% 30.18 in 2.0 mi North 3.5 mph - N/A Snow Light Snow
8:35 PM 28.4 °F 24.6 °F 28.4 °F 100% 30.18 in 1.5 mi North 3.5 mph - N/A Snow Light Snow
8:55 PM 28.4 °F 23.3 °F 28.4 °F 100% 30.18 in 1.2 mi NNE 4.6 mph - N/A Snow Light Snow
9:15 PM 28.4 °F 23.3 °F 28.4 °F 100% 30.18 in 1.2 mi NE 4.6 mph - N/A Snow Light Snow
9:35 PM 28.4 °F 23.3 °F 28.4 °F 100% 30.18 in 1.8 mi NNE 4.6 mph - N/A Snow Light Snow
9:55 PM 28.4 °F 23.3 °F 28.4 °F 100% 30.18 in 1.8 mi North 4.6 mph - N/A Snow Light Snow
10:15 PM 28.4 °F 24.6 °F 28.4 °F 100% 30.19 in 4.0 mi NNE 3.5 mph - N/A Snow Light Snow
10:35 PM 28.4 °F 24.6 °F 28.4 °F 100% 30.19 in 3.0 mi NNE 3.5 mph - N/A Snow Light Snow
10:55 PM 28.4 °F 24.6 °F 28.4 °F 100% 30.19 in 5.0 mi NNE 3.5 mph - N/A Snow Light Snow
11:15 PM 28.4 °F 24.6 °F 28.4 °F 100% 30.20 in 7.0 mi NE 3.5 mph - N/A Rain Light Freezing Rain
11:35 PM 28.4 °F 24.6 °F 28.4 °F 100% 30.20 in 7.0 mi NE 3.5 mph - N/A Rain Light Freezing Rain
11:55 PM 28.4 °F 24.6 °F 28.4 °F 100% 30.19 in 7.0 mi NE 3.5 mph - N/A Rain Light Freezing Rain